Weather in Verkhnyaya Kuenga

Russia / Zabaykalsky Krai     52°07′53″N   117°03′32″E
temp.,
°C
wind,
m/s
gust,
m/s
humid.,
%
clouds,
%
prec.,
mm/h
press.,
hPa
HPBL,
m
19 april, mon
mon1900:00−2nnw712323 0.0 1019863
03:00−4nnw511360 0.0 1022787
06:00−7nw25420 0.0 1024171
09:00−3nnw452234 0.0 1025853
12:00+1nw331393 0.0 10231375
15:00+4w451110 0.0 10201952
18:00+4w25140 0.0 10192197
21:00+1sse33235 0.0 101941
20 april, tue
tue2000:00−1se222795 0.0 101922
03:00−1e322924 0.0 101638
06:00−3e22336 0.0 101317
09:00+4sse362399 0.0 1010406
12:00+12wsw572399 0.0 10051154
15:00+15w262099 0.0 10031653
18:00+18wsw261983 0.0 10011782
21:00+12se11304 0.0 100210
21 april, wed
wed2100:00+8ese11380 0.0 100310
03:00+6ene1144100 0.0 100410
06:00+4ne225071 0.0 100513
09:00+8ene233850 0.0 1004294
12:00+14ene21295 0.0 1002840
15:00+18nw3324100 0.0 10011378
18:00+17nw4424100 0.0 10011369
21:00+9nnw585099 0.0 1005217
22 april, thu
thu2200:00+6nnw4861100 0.0 1009364
03:00+5n4765100 0.3 1011604
06:00+1nnw5989100 0.0 1015388
09:00+3n457594 0.1 1018684
12:00+7n4545100 0.0 10191485
15:00+9nnw662881 0.0 10201895
18:00+8n6625100 0.0 10221627
21:00+5nne61037100 0.0 1027567
23 april, fri
fri2300:00+3ne5951100 0.0 1031950
03:00+1ne6950100 0.0 1034898
06:000ene5950100 0.0 1037753
09:00+1ene6735100 0.0 1038992
12:00+4ene5620100 0.0 10381669
15:00+6ne3415100 0.0 10362035
18:00+7nne33156 0.0 10362074
21:00+3sw0020100 0.0 103710